Погода в Бубнове

Россия / Смоленская область     54°42′05″N   32°14′40″E
темп.,
°C
ветер,
м/с
пор.,
м/с
влажн.,
%
обл.,
%
осадки,
мм/ч
давл.,
гПа
погр.,
м
17 октября, вс
вс1700:00+4юз5138378 0.0 1015294
03:00+4юз5139015 0.0 1015308
06:00+4зюз5129479 0.0 1014344
09:00+5зюз51189100 0.0 1014443
12:00+8зюз697257 0.0 1014723
15:00+10зюз61064100 0.0 10131184
18:00+8зюз51070100 0.1 1013443
21:00+6зюз6127875 0.1 1014560
18 октября, пн
пн1800:00+5зюз5128648 0.0 1014430
03:00+5зюз51188100 0.0 1013460
06:00+5зюз5128792 0.1 1012591
09:00+6з61081100 0.3 10121179
12:00+7зсз5866100 0.4 1013913
15:00+8зсз69496 0.4 10131507
18:00+4зсз386711 0.0 1014162
21:00+3з410783 0.0 1015243
19 октября, вт
вт1900:00+1зсз410875 0.0 1015232
03:00+1зсз410945 0.0 1016287
06:00+1сз4890100 0.0 1018448
09:00+3сз5774100 0.0 1019868
12:00+3сз5675100 0.0 1021862
15:00+3сз4879100 0.0 1021714
18:00+1сз5109269 0.0 1023523
21:00+1сз488649 0.1 1024514
20 октября, ср
ср2000:00−1сз37965 0.0 1025161
03:00−2сз249579 0.0 102569
06:00−2з2291100 0.0 102537
09:000юз3474100 0.0 1025204
12:00+4ююз5657100 0.0 1023588
15:00+4ююз5960100 0.0 1021499
18:00+4ю71465100 0.1 1018536
21:00+5ююз81763100 0.1 1015626
21 октября, чт
чт2100:00+4ююз81884100 1.4 1012583
03:00+6ююз8178693 2.1 1010562
06:00+6ююз81782100 0.0 1007500
09:00+8ююз8187863 0.0 1005562
12:00+11ююз91867100 0.0 1003770
15:00+11юз91774100 0.6 1002728
18:00+10юз91887100 3.5 1002760
21:00+10юз81582100 3.5 1002997